This is the latest recevied weather packets stored in our database for station/object DB0WUN-13. If no packets are shown the sender has not sent any weather packets the latest 1 day(s).
| Time | Temp. | Humidity | Pressure | Rain* | Wind** | Luminosity | Snow |
|---|---|---|---|---|---|---|---|
| 1778044389 | 11.11° C | 89% | 1007.6 hPa | 0 mm | 2.24 m/s, 236° | 35 W/m² | - |
| 1778044320 | 11.11° C | 89% | 1007.6 hPa | 0 mm | 2.24 m/s, 243° | 32 W/m² | - |
| 1778044266 | 11.11° C | 89% | 1007.5 hPa | 0 mm | 2.24 m/s, 253° | 37 W/m² | - |
| 1778044203 | 11.11° C | 89% | 1007.5 hPa | 0 mm | 2.24 m/s, 239° | 39 W/m² | - |
| 1778044144 | 11.11° C | 89% | 1007.5 hPa | 0 mm | 2.24 m/s, 229° | 30 W/m² | - |
| 1778044082 | 11.11° C | 89% | 1007.5 hPa | 0 mm | 2.24 m/s, 276° | 32 W/m² | - |
| 1778044020 | 11.11° C | 89% | 1007.5 hPa | 0 mm | 2.24 m/s, 229° | 30 W/m² | - |
| 1778043957 | 11.11° C | 90% | 1007.5 hPa | 0 mm | 2.24 m/s, 217° | 26 W/m² | - |
| 1778043896 | 11.11° C | 90% | 1007.5 hPa | 0 mm | 2.24 m/s, 240° | 21 W/m² | - |
| 1778043837 | 11.11° C | 90% | 1007.5 hPa | 0 mm | 2.24 m/s, 265° | 21 W/m² | - |
| 1778043780 | 11.11° C | 90% | 1007.4 hPa | 0 mm | 2.24 m/s, 272° | 23 W/m² | - |
| 1778043720 | 11.11° C | 90% | 1007.4 hPa | 0 mm | 2.24 m/s, 236° | 23 W/m² | - |
| 1778043662 | 11.11° C | 90% | 1007.5 hPa | 0 mm | 2.24 m/s, 262° | 26 W/m² | - |
| 1778043596 | 11.11° C | 90% | 1007.4 hPa | 0 mm | 2.24 m/s, 236° | 30 W/m² | - |
| 1778043551 | 11.11° C | 90% | 1007.5 hPa | 0 mm | 2.24 m/s, 235° | 25 W/m² | - |
| 1778043510 | 11.11° C | 90% | 1007.5 hPa | 0 mm | 2.24 m/s, 252° | 25 W/m² | - |
| 1778043477 | 11.11° C | 91% | 1007.5 hPa | 0 mm | 2.24 m/s, 275° | 23 W/m² | - |
| 1778043434 | 11.11° C | 91% | 1007.5 hPa | 0 mm | 2.24 m/s, 253° | 19 W/m² | - |
| 1778043385 | 11.11° C | 91% | 1007.5 hPa | 0 mm | 2.24 m/s, 252° | 16 W/m² | - |
| 1778043352 | 11.11° C | 91% | 1007.5 hPa | 0 mm | 2.24 m/s, 250° | 16 W/m² | - |
| 1778043313 | 11.11° C | 91% | 1007.6 hPa | 0 mm | 2.24 m/s, 257° | 12 W/m² | - |
| 1778043276 | 11.11° C | 91% | 1007.6 hPa | 0 mm | 2.24 m/s, 257° | 11 W/m² | - |
| 1778043103 | 11.11° C | 91% | 1007.5 hPa | 0 mm | 2.24 m/s, 230° | 11 W/m² | - |
| 1778043063 | 11.11° C | 91% | 1007.5 hPa | 0 mm | 2.24 m/s, 243° | 11 W/m² | - |
| 1778043029 | 11.11° C | 91% | 1007.5 hPa | 0 mm | 2.24 m/s, 303° | 9 W/m² | - |
* Rain latest hour (hover to see other rain measurements)
** Current wind speed in m/s (hover to see current wind gust speed)